When you browse on this site, cookies collect data to enhance your experience and personalize the content and advertising you see.
Visit our Privacy Policy to learn more. By continuing to use the site, you agree to this use of cookies and data.

Hourly Weather Urickoe

Today, 14 July, Tuesday

Time Temperature Precipitation Wind Pressure Humidity
00:00 +11°C° 0 mm 1 mps 745 mmHg 96%
01:00 +11°C° 0 mm 1 mps 745 mmHg 96%
02:00 +11°C° 0 mm 1 mps 745 mmHg 97%
03:00 +10°C° 0 mm 2 mps 745 mmHg 96%
04:00 +10°C° 0 mm 2 mps 744 mmHg 95%
05:00 +12°C° 0 mm 2 mps 744 mmHg 93%
06:00 +13°C° 0 mm 2 mps 744 mmHg 87%
07:00 +15°C° 0 mm 2 mps 745 mmHg 81%
08:00 +16°C° 0 mm 2 mps 745 mmHg 74%
09:00 +18°C° 0 mm 3 mps 745 mmHg 67%
10:00 +19°C° 0 mm 3 mps 745 mmHg 60%
11:00 +20°C° 0 mm 3 mps 745 mmHg 52%
12:00 +21°C° 0 mm 3 mps 744 mmHg 51%
13:00 +21°C° 0 mm 3 mps 744 mmHg 49%
14:00 +21°C° 0 mm 4 mps 744 mmHg 47%
15:00 +21°C° 0 mm 4 mps 744 mmHg 49%
16:00 +20°C° 0 mm 4 mps 744 mmHg 51%
17:00 +20°C° 0 mm 4 mps 743 mmHg 53%
18:00 +19°C° 0 mm 3 mps 743 mmHg 58%
19:00 +18°C° 0 mm 3 mps 743 mmHg 63%
20:00 +16°C° 0 mm 3 mps 743 mmHg 68%
21:00 +16°C° 0 mm 3 mps 742 mmHg 67%
22:00 +15°C° 0 mm 4 mps 742 mmHg 66%
23:00 +15°C° 0 mm 5 mps 742 mmHg 65%

Tomorrow, 15 July, Wednesday

Time Temperature Precipitation Wind Pressure Humidity
00:00 +14°C° 0 mm 4 mps 742 mmHg 65%
01:00 +14°C° 0 mm 4 mps 742 mmHg 64%
02:00 +13°C° 0 mm 4 mps 741 mmHg 64%
03:00 +13°C° 0.3 mm 4 mps 741 mmHg 67%
04:00 +12°C° 0.3 mm 4 mps 741 mmHg 71%
05:00 +11°C° 0.3 mm 4 mps 741 mmHg 75%
06:00 +12°C° 0.4 mm 4 mps 741 mmHg 77%
07:00 +12°C° 0.4 mm 5 mps 741 mmHg 79%
08:00 +12°C° 0.4 mm 5 mps 741 mmHg 81%
09:00 +12°C° 0.2 mm 4 mps 741 mmHg 83%
10:00 +12°C° 0.2 mm 4 mps 740 mmHg 85%
11:00 +12°C° 0.2 mm 3 mps 740 mmHg 87%
12:00 +12°C° 0.1 mm 3 mps 740 mmHg 87%
13:00 +12°C° 0.1 mm 3 mps 741 mmHg 87%
14:00 +12°C° 0.1 mm 3 mps 741 mmHg 87%
15:00 +12°C° 0.5 mm 3 mps 741 mmHg 90%
16:00 +11°C° 0.5 mm 3 mps 741 mmHg 92%
17:00 +11°C° 0.5 mm 3 mps 741 mmHg 94%
18:00 +11°C° 0.5 mm 3 mps 741 mmHg 95%
19:00 +11°C° 0.5 mm 3 mps 741 mmHg 95%
20:00 +11°C° 0.5 mm 3 mps 741 mmHg 96%
21:00 +11°C° 0.1 mm 3 mps 741 mmHg 96%
22:00 +11°C° 0.1 mm 3 mps 741 mmHg 96%
23:00 +11°C° 0.1 mm 3 mps 740 mmHg 96%

Day after tomorrow, 16 July, Thursday

Time Temperature Precipitation Wind Pressure Humidity
00:00 +11°C° 0.1 mm 3 mps 740 mmHg 96%
01:00 +11°C° 0.1 mm 3 mps 740 mmHg 96%
02:00 +11°C° 0.1 mm 3 mps 740 mmHg 97%
03:00 +11°C° 0.1 mm 3 mps 740 mmHg 97%
04:00 +11°C° 0.1 mm 3 mps 740 mmHg 96%
05:00 +11°C° 0.1 mm 3 mps 740 mmHg 96%
06:00 +12°C° 0.1 mm 4 mps 740 mmHg 94%
07:00 +13°C° 0.1 mm 4 mps 740 mmHg 93%
08:00 +13°C° 0.1 mm 4 mps 740 mmHg 91%
09:00 +15°C° 0 mm 4 mps 740 mmHg 84%
10:00 +17°C° 0 mm 4 mps 740 mmHg 77%
11:00 +18°C° 0 mm 4 mps 740 mmHg 70%
12:00 +19°C° 0.1 mm 4 mps 741 mmHg 67%
13:00 +19°C° 0.1 mm 4 mps 741 mmHg 65%
14:00 +19°C° 0.1 mm 4 mps 741 mmHg 63%
15:00 +19°C° 0 mm 4 mps 741 mmHg 63%
16:00 +19°C° 0 mm 3 mps 741 mmHg 64%
17:00 +19°C° 0 mm 3 mps 741 mmHg 65%
18:00 +18°C° 0 mm 3 mps 741 mmHg 72%
19:00 +16°C° 0 mm 2 mps 741 mmHg 79%
20:00 +15°C° 0 mm 2 mps 741 mmHg 87%
21:00 +14°C° 0 mm 1 mps 741 mmHg 89%
22:00 +13°C° 0 mm 1 mps 742 mmHg 92%
23:00 +12°C° 0 mm 1 mps 742 mmHg 95%

17 July, Friday

Time Temperature Precipitation Wind Pressure Humidity
00:00 +12°C° 0 mm 1 mps 742 mmHg 95%
01:00 +11°C° 0 mm 1 mps 742 mmHg 96%
02:00 +10°C° 0 mm 2 mps 742 mmHg 97%
03:00 +10°C° 0 mm 2 mps 742 mmHg 95%
04:00 +10°C° 0 mm 2 mps 742 mmHg 94%
05:00 +10°C° 0 mm 2 mps 743 mmHg 93%
06:00 +13°C° 0 mm 2 mps 743 mmHg 89%
07:00 +14°C° 0 mm 2 mps 743 mmHg 84%
08:00 +15°C° 0 mm 2 mps 743 mmHg 80%
09:00 +16°C° 0 mm 3 mps 743 mmHg 77%
10:00 +17°C° 0 mm 3 mps 743 mmHg 73%
11:00 +17°C° 0 mm 3 mps 744 mmHg 70%
12:00 +19°C° 0 mm 3 mps 744 mmHg 62%
13:00 +21°C° 0 mm 3 mps 744 mmHg 53%
14:00 +22°C° 0 mm 3 mps 744 mmHg 45%
15:00 +22°C° 0 mm 3 mps 744 mmHg 45%
16:00 +22°C° 0 mm 3 mps 744 mmHg 44%
17:00 +22°C° 0 mm 3 mps 744 mmHg 44%
18:00 +20°C° 0 mm 2 mps 744 mmHg 54%
19:00 +18°C° 0 mm 2 mps 745 mmHg 65%
20:00 +16°C° 0 mm 1 mps 745 mmHg 75%
21:00 +15°C° 0 mm 1 mps 745 mmHg 80%
22:00 +14°C° 0 mm 1 mps 745 mmHg 85%
23:00 +12°C° 0 mm 1 mps 746 mmHg 90%

18 July, Saturday

Time Temperature Precipitation Wind Pressure Humidity
00:00 +12°C° 0 mm 1 mps 746 mmHg 91%
01:00 +11°C° 0 mm 1 mps 746 mmHg 93%
02:00 +11°C° 0 mm 1 mps 747 mmHg 94%
03:00 +11°C° 0 mm 1 mps 747 mmHg 92%
04:00 +12°C° 0 mm 1 mps 747 mmHg 90%
05:00 +12°C° 0 mm 1 mps 747 mmHg 89%
06:00 +15°C° 0 mm 1 mps 748 mmHg 79%
07:00 +18°C° 0 mm 1 mps 748 mmHg 70%
08:00 +19°C° 0 mm 2 mps 748 mmHg 60%
09:00 +20°C° 0 mm 2 mps 748 mmHg 54%
10:00 +21°C° 0 mm 2 mps 748 mmHg 49%
11:00 +24°C° 0 mm 2 mps 748 mmHg 43%
12:00 +24°C° 0 mm 2 mps 748 mmHg 41%
13:00 +25°C° 0 mm 3 mps 748 mmHg 39%
14:00 +25°C° 0 mm 3 mps 748 mmHg 37%
15:00 +25°C° 0 mm 3 mps 748 mmHg 39%
16:00 +25°C° 0 mm 2 mps 748 mmHg 40%
17:00 +25°C° 0 mm 2 mps 748 mmHg 42%
18:00 +21°C° 0 mm 2 mps 748 mmHg 51%
19:00 +20°C° 0 mm 1 mps 748 mmHg 59%
20:00 +18°C° 0 mm 1 mps 748 mmHg 67%
21:00 +16°C° 0 mm 1 mps 748 mmHg 66%
22:00 +14°C° 0 mm 0 mps 749 mmHg 66%
23:00 +13°C° 0 mm 0 mps 749 mmHg 65%

19 July, Sunday

Time Temperature Precipitation Wind Pressure Humidity
00:00 +12°C° 0 mm 0 mps 749 mmHg 66%
01:00 +12°C° 0 mm 0 mps 749 mmHg 67%
02:00 +12°C° 0 mm 0 mps 749 mmHg 68%
03:00 +12°C° 0 mm 0 mps 749 mmHg 70%
04:00 +12°C° 0 mm 0 mps 749 mmHg 71%
05:00 +12°C° 0 mm 0 mps 749 mmHg 72%
06:00 +16°C° 0 mm 1 mps 749 mmHg 66%
07:00 +19°C° 0 mm 1 mps 749 mmHg 59%
08:00 +21°C° 0 mm 1 mps 749 mmHg 53%
09:00 +22°C° 0 mm 1 mps 749 mmHg 48%
10:00 +24°C° 0 mm 1 mps 749 mmHg 43%
11:00 +25°C° 0 mm 2 mps 749 mmHg 39%
12:00 +26°C° 0 mm 2 mps 749 mmHg 39%
13:00 +26°C° 0 mm 2 mps 748 mmHg 39%
14:00 +27°C° 0 mm 2 mps 748 mmHg 39%
15:00 +26°C° 0 mm 2 mps 748 mmHg 41%
16:00 +26°C° 0 mm 2 mps 747 mmHg 43%
17:00 +26°C° 0 mm 2 mps 747 mmHg 45%
18:00 +24°C° 0 mm 2 mps 747 mmHg 54%
19:00 +21°C° 0 mm 2 mps 747 mmHg 63%
20:00 +20°C° 0 mm 1 mps 747 mmHg 72%
21:00 +19°C° 0 mm 1 mps 747 mmHg 73%
22:00 +19°C° 0 mm 1 mps 747 mmHg 75%
23:00 +18°C° 0 mm 1 mps 747 mmHg 76%
Show more